User: anonymous   Login
Location: Unspecified
(0.0000°N, 0.0000°E)
Time: 23:49:20
(UTC+00:00)
Language:

Cubesat XI-IV - Orbit

View from above orbital plane
View from above orbital plane
View from above satellite
View from above satellite

Ground track
Ground track

The orbit data is extracted from the following two-line orbital elements,

1 27848U 03031J   17349.51312024  .00000055  00000-0  44979-4 0  9995
2 27848  98.6976 356.2059 0009516 186.9148 173.1900 14.21690761749967
Epoch (UTC): 15 December 2017 12:18:53
Eccentricity: 0.0009516
inclination: 98.6976°
perigee height: 813 km
apogee height: 826 km
right ascension of ascending node: 356.2059°
argument of perigee: 186.9148°
revolutions per day: 14.21690761
mean anomaly at epoch: 173.1900°
orbit number at epoch: 74996

The dashed part of the orbit path shows where the satellite is in the earth's shadow,  

DLR